一网星座-0291星 (ONEWEB-0291 )

导读 | 星芒AI

ONEWEB-0291 是 OneWeb 卫星星座计划中的一颗低轨通信卫星,旨在为全球提供高速互联网服务。该卫星于近期成功发射,部署在约 1200 公里的近地轨道上,采用先进通信技术,支持宽带数据传输。OneWeb 项目由多国合作推进,致力于填补数字鸿沟,特别是在偏远和网络覆盖不足的地区。该卫星系统采用可重复使用发射技术,注重可持续发展与轨道安全管理。ONEWEB-0291 的加入进一步增强了 OneWeb 的全球网络能力。

基本信息
目录编号:
49081
目录名称:
ONEWEB-0291
国际标识:
2021-075G
轨道中心:
EARTH
卫星名称:
一网星座-0291星
卫星全名:
一网星座-0291星 (ONEWEB-0291 )
卫星状态:
在轨 (已飞行1531 天)
发射日期:
2021-08-21 UTC
国别 :
英国 (GB)
星等 :
--
轨道信息
数据来源 国际轨道数据 AOE轨道数据
星历时间 2025-10-30T04:22:24+0800
9小时前
查看轨道信息
2025-10-29T21:00:00+0800
16小时前
查看轨道信息
半长轴 7571.845km 7571.853km
偏心率 0.0001766 0.0001844
轨道倾角 87.913° 87.911°
近地点辐角 88.592° 92.459°
升交点赤经 51.651° 51.711°
平近点角 271.541° 251.192°
近地点 1192.372km 1192.321km
远地点 1195.048km 1195.115km
周期 109.285分钟 109.286分钟
每日圈数 13.176505 13.176485
详细信息
平衡模式:
三轴稳定
覆盖范围:
全球
运营商:
一网卫星公司
运营商所在国:
英国
制造商(研发单位):
一网卫星公司
制造商所在国:
英国
使用方式:
暂无
卫星简介
OneWeb卫星网络由648颗重约125公斤的微型卫星组成,运行在1200公里的轨道上。 每颗卫星都能够提供至少每秒8千兆位的吞吐量,以使用其高吞吐量的Ku频段有效载荷为家庭和移动平台提供互联网接入。该卫星仍在工作。
2D轨道图
3D轨道图
轨道高度分析图
轨道倾角分析图
轨道综合分析图
查看轨道综合分析图